Location: Banff
(51.1667°N, 115.5667°W)
Time: 13:23:58
(UTC+00:00)

Vanguard 1 Rocket - Pass Details

Date: 03 December 2020
Orbit: 655 x 4222 km, 34.3° (Epoch: 23 January)

Event Time Altitude Azimuth Distance (km) Brightness Sun altitude
Rises 04:52:09 0° 180° (S) 7,465 11.9 -47.6°
Enters shadow 04:54:18 - 176° (S) 7,293 11.8 -47.9°
Reaches altitude 10° 04:59:44 10° 165° (SSE) 6,944 - -48.7°
Maximum altitude 05:13:30 19° 130° (SE) 6,655 - -50.5°
Drops below altitude 10° 05:27:36 10° 96° (E) 7,248 - -52.3°
Sets 05:35:34 0° 82° (E) 7,914 - -53.2°
